• In Schweiz
  • Länderverzeichnis
  • Für 7 Tage
  • Wassertemperatur
  • Satellitenkarten
  • Wetterkarte
  • Widgets
  • user-avatar
    Anmelden

    Stündliche Wetter Tensyupino

    Heute, 19 Juli, Donnerstag

    Zeit Temperatur Niederschläge Wind Luftdruck Luftfeuchtigkeit
    00:00 +19°C° 0 mm 4 m/S 741 mmHg 95%
    01:00 +19°C° 0,1 mm 4 m/S 741 mmHg 96%
    02:00 +19°C° 0,1 mm 3 m/S 741 mmHg 96%
    03:00 +19°C° 0,1 mm 3 m/S 741 mmHg 96%
    04:00 +19°C° 0,2 mm 3 m/S 741 mmHg 96%
    05:00 +19°C° 0,2 mm 4 m/S 742 mmHg 96%
    06:00 +19°C° 0,2 mm 4 m/S 742 mmHg 95%
    07:00 +19°C° 0,7 mm 4 m/S 742 mmHg 94%
    08:00 +19°C° 0,7 mm 4 m/S 742 mmHg 93%
    09:00 +20°C° 0,7 mm 4 m/S 742 mmHg 92%
    10:00 +20°C° 0,3 mm 4 m/S 742 mmHg 91%
    11:00 +21°C° 0,3 mm 4 m/S 742 mmHg 89%
    12:00 +22°C° 0,3 mm 4 m/S 742 mmHg 87%
    13:00 +23°C° 0,4 mm 4 m/S 743 mmHg 83%
    14:00 +25°C° 0,4 mm 4 m/S 743 mmHg 79%
    15:00 +26°C° 0,4 mm 4 m/S 743 mmHg 75%
    16:00 +26°C° 0,8 mm 4 m/S 743 mmHg 77%
    17:00 +26°C° 0,8 mm 3 m/S 743 mmHg 79%
    18:00 +25°C° 0,8 mm 3 m/S 743 mmHg 81%
    19:00 +24°C° 0,2 mm 3 m/S 743 mmHg 85%
    20:00 +23°C° 0,2 mm 2 m/S 743 mmHg 89%
    21:00 +21°C° 0,2 mm 2 m/S 743 mmHg 93%
    22:00 +20°C° 0 mm 2 m/S 743 mmHg 94%
    23:00 +20°C° 0 mm 2 m/S 743 mmHg 94%

    Morgen, 20 Juli, Freitag

    Zeit Temperatur Niederschläge Wind Luftdruck Luftfeuchtigkeit
    00:00 +20°C° 0 mm 3 m/S 743 mmHg 95%
    01:00 +19°C° 0,1 mm 3 m/S 744 mmHg 95%
    02:00 +19°C° 0,1 mm 2 m/S 744 mmHg 96%
    03:00 +19°C° 0,1 mm 2 m/S 744 mmHg 96%
    04:00 +19°C° 0 mm 3 m/S 744 mmHg 95%
    05:00 +20°C° 0 mm 3 m/S 744 mmHg 94%
    06:00 +20°C° 0 mm 3 m/S 744 mmHg 92%
    07:00 +22°C° 0,1 mm 3 m/S 745 mmHg 87%
    08:00 +24°C° 0,1 mm 3 m/S 745 mmHg 81%
    09:00 +26°C° 0,1 mm 3 m/S 745 mmHg 76%
    10:00 +27°C° 1 mm 3 m/S 745 mmHg 74%
    11:00 +27°C° 1 mm 4 m/S 745 mmHg 71%
    12:00 +28°C° 1 mm 4 m/S 745 mmHg 68%
    13:00 +28°C° 0,6 mm 4 m/S 745 mmHg 67%
    14:00 +29°C° 0,6 mm 4 m/S 745 mmHg 65%
    15:00 +29°C° 0,6 mm 4 m/S 745 mmHg 64%
    16:00 +29°C° 0,4 mm 4 m/S 745 mmHg 67%
    17:00 +28°C° 0,4 mm 4 m/S 745 mmHg 70%
    18:00 +27°C° 0,4 mm 3 m/S 745 mmHg 73%
    19:00 +26°C° 0 mm 3 m/S 745 mmHg 78%
    20:00 +25°C° 0 mm 3 m/S 745 mmHg 83%
    21:00 +22°C° 0 mm 3 m/S 745 mmHg 88%
    22:00 +22°C° 0,1 mm 3 m/S 745 mmHg 90%
    23:00 +21°C° 0,1 mm 2 m/S 745 mmHg 92%

    übermorgen, 21 Juli, Samstag

    Zeit Temperatur Niederschläge Wind Luftdruck Luftfeuchtigkeit
    00:00 +21°C° 0,1 mm 2 m/S 745 mmHg 94%
    01:00 +20°C° 0 mm 2 m/S 745 mmHg 95%
    02:00 +20°C° 0 mm 2 m/S 745 mmHg 95%
    03:00 +20°C° 0 mm 2 m/S 745 mmHg 96%
    04:00 +20°C° 0 mm 2 m/S 746 mmHg 94%
    05:00 +21°C° 0 mm 2 m/S 746 mmHg 92%
    06:00 +21°C° 0 mm 2 m/S 746 mmHg 91%
    07:00 +24°C° 0,1 mm 3 m/S 746 mmHg 84%
    08:00 +25°C° 0,1 mm 3 m/S 746 mmHg 77%
    09:00 +27°C° 0,1 mm 3 m/S 746 mmHg 70%
    10:00 +28°C° 0,1 mm 3 m/S 746 mmHg 65%
    11:00 +29°C° 0,1 mm 4 m/S 746 mmHg 60%
    12:00 +30°C° 0,1 mm 4 m/S 746 mmHg 56%
    13:00 +30°C° 0,7 mm 4 m/S 746 mmHg 59%
    14:00 +29°C° 0,7 mm 4 m/S 746 mmHg 63%
    15:00 +29°C° 0,7 mm 3 m/S 746 mmHg 67%
    16:00 +29°C° 0,2 mm 3 m/S 746 mmHg 67%
    17:00 +29°C° 0,2 mm 3 m/S 746 mmHg 68%
    18:00 +29°C° 0,2 mm 2 m/S 746 mmHg 69%
    19:00 +27°C° 0 mm 2 m/S 746 mmHg 75%
    20:00 +25°C° 0 mm 2 m/S 745 mmHg 81%
    21:00 +24°C° 0 mm 1 m/S 745 mmHg 88%
    22:00 +23°C° 0,2 mm 2 m/S 745 mmHg 89%
    23:00 +23°C° 0,2 mm 2 m/S 745 mmHg 91%

    22 Juli, Sonntag

    Zeit Temperatur Niederschläge Wind Luftdruck Luftfeuchtigkeit
    00:00 +21°C° 0,2 mm 2 m/S 745 mmHg 93%
    01:00 +21°C° 0,4 mm 2 m/S 745 mmHg 93%
    02:00 +20°C° 0,4 mm 2 m/S 745 mmHg 94%
    03:00 +21°C° 0,4 mm 1 m/S 745 mmHg 95%
    04:00 +22°C° 0 mm 1 m/S 745 mmHg 94%
    05:00 +22°C° 0 mm 1 m/S 745 mmHg 92%
    06:00 +22°C° 0 mm 1 m/S 745 mmHg 91%
    07:00 +24°C° 0,2 mm 2 m/S 745 mmHg 87%
    08:00 +25°C° 0,2 mm 2 m/S 745 mmHg 82%
    09:00 +27°C° 0,2 mm 2 m/S 745 mmHg 78%
    10:00 +28°C° 0,5 mm 2 m/S 745 mmHg 72%
    11:00 +29°C° 0,5 mm 2 m/S 745 mmHg 66%
    12:00 +30°C° 0,5 mm 3 m/S 745 mmHg 60%
    13:00 +30°C° 0,3 mm 3 m/S 745 mmHg 60%
    14:00 +30°C° 0,3 mm 3 m/S 745 mmHg 60%
    15:00 +31°C° 0,3 mm 3 m/S 745 mmHg 61%
    16:00 +30°C° 0,9 mm 3 m/S 745 mmHg 66%
    17:00 +29°C° 0,9 mm 3 m/S 745 mmHg 71%
    18:00 +28°C° 0,9 mm 3 m/S 745 mmHg 76%
    19:00 +27°C° 0,2 mm 3 m/S 745 mmHg 80%
    20:00 +25°C° 0,2 mm 3 m/S 745 mmHg 85%
    21:00 +24°C° 0,2 mm 2 m/S 745 mmHg 90%
    22:00 +23°C° 0 mm 2 m/S 745 mmHg 91%
    23:00 +23°C° 0 mm 2 m/S 745 mmHg 93%

    23 Juli, Montag

    Zeit Temperatur Niederschläge Wind Luftdruck Luftfeuchtigkeit
    00:00 +21°C° 0 mm 2 m/S 745 mmHg 94%
    01:00 +21°C° 0 mm 2 m/S 745 mmHg 95%
    02:00 +21°C° 0 mm 2 m/S 745 mmHg 95%
    03:00 +21°C° 0 mm 2 m/S 745 mmHg 96%
    04:00 +21°C° 0,1 mm 2 m/S 745 mmHg 94%
    05:00 +21°C° 0,1 mm 3 m/S 745 mmHg 93%
    06:00 +22°C° 0,1 mm 3 m/S 746 mmHg 92%
    07:00 +24°C° 0,2 mm 3 m/S 746 mmHg 86%
    08:00 +26°C° 0,2 mm 3 m/S 745 mmHg 80%
    09:00 +27°C° 0,2 mm 3 m/S 745 mmHg 74%
    10:00 +28°C° 0,8 mm 3 m/S 745 mmHg 71%
    11:00 +29°C° 0,8 mm 3 m/S 746 mmHg 68%
    12:00 +30°C° 0,8 mm 3 m/S 746 mmHg 65%
    13:00 +30°C° 1,4 mm 3 m/S 746 mmHg 66%
    14:00 +30°C° 1,4 mm 3 m/S 746 mmHg 66%
    15:00 +29°C° 1,4 mm 2 m/S 746 mmHg 67%
    16:00 +29°C° 0,8 mm 2 m/S 746 mmHg 70%
    17:00 +28°C° 0,8 mm 2 m/S 746 mmHg 73%
    18:00 +28°C° 0,8 mm 2 m/S 746 mmHg 77%
    19:00 +27°C° 0,1 mm 2 m/S 746 mmHg 82%
    20:00 +25°C° 0,1 mm 2 m/S 746 mmHg 86%
    21:00 +24°C° 0,1 mm 2 m/S 746 mmHg 91%
    22:00 +23°C° 0 mm 2 m/S 747 mmHg 92%
    23:00 +23°C° 0 mm 2 m/S 747 mmHg 93%

    24 Juli, Dienstag

    Zeit Temperatur Niederschläge Wind Luftdruck Luftfeuchtigkeit
    00:00 +21°C° 0 mm 2 m/S 747 mmHg 94%
    01:00 +21°C° 0 mm 2 m/S 747 mmHg 95%
    02:00 +21°C° 0 mm 2 m/S 747 mmHg 95%
    03:00 +21°C° 0 mm 2 m/S 747 mmHg 96%
    04:00 +21°C° 0 mm 2 m/S 748 mmHg 94%
    05:00 +21°C° 0 mm 2 m/S 748 mmHg 93%
    06:00 +23°C° 0 mm 2 m/S 748 mmHg 91%
    07:00 +24°C° 0,5 mm 3 m/S 748 mmHg 87%
    08:00 +26°C° 0,5 mm 3 m/S 748 mmHg 83%
    09:00 +27°C° 0,5 mm 3 m/S 748 mmHg 79%
    10:00 +28°C° 0,8 mm 3 m/S 748 mmHg 74%
    11:00 +29°C° 0,8 mm 3 m/S 748 mmHg 69%
    12:00 +30°C° 0,8 mm 4 m/S 748 mmHg 65%
    13:00 +30°C° 0,6 mm 4 m/S 749 mmHg 65%
    14:00 +30°C° 0,6 mm 4 m/S 749 mmHg 66%
    15:00 +30°C° 0,6 mm 4 m/S 749 mmHg 66%
    16:00 +29°C° 0,4 mm 4 m/S 749 mmHg 69%
    17:00 +28°C° 0,4 mm 4 m/S 749 mmHg 73%
    18:00 +27°C° 0,4 mm 4 m/S 749 mmHg 76%
    19:00 +26°C° 0 mm 3 m/S 749 mmHg 79%
    20:00 +25°C° 0 mm 3 m/S 750 mmHg 81%
    21:00 +22°C° 0 mm 3 m/S 750 mmHg 84%
    22:00 +22°C° 0 mm 3 m/S 750 mmHg 83%
    23:00 +23°C° 0 mm 2 m/S 750 mmHg 82%
    Mehr zeigen